Vertical_Velocity
7 0 7 7 -2 5 9 6 2 4 -6 -10 11 -2 3 4 0 -5 7 -1 1 -5
7 -2 -1 9 6 6 0 6 10 1 -11 6 12 3 8 -5 2 -3 5 -3 0 3
-0 -3 3 9 8 10 9 10 -20 -5 -3 -2 1 1 11 -4 -0 1 -5 8 -9 -4
-4 -3 -0 4 3 3 10 -4 -3 0 2 -7 5 7 4 1 2 -3 -1 -4 -5 -3
6 9 8 6 2 5 -2 6 5 -11 4 3 -8 -5 13 -3 -4 5 -10 -5 0 1
5 4 2 3 -2 -1 -5 -15 10 -8 -3 -11 6 -3 10 -4 6 -6 -5 -2 -1 3
2 4 2 -0 3 5 1 -3 -20 -11 1 -3 7 2 3 7 -1 3 -5 -1 -0 2
4 3 4 6 7 9 6 2 -1 14 -3 6 -2 -1 6 -2 0 -4 -2 -2 0 1
3 4 7 5 -5 2 4 -2 -9 18 -5 -8 -2 11 2 2 -2 -3 -3 -5 -1 -2
6 7 2 -2 1 -5 -2 -2 -8 12 -3 -8 0 -0 -1 -4 -1 -3 -3 -3 -3 -3
-0 0 2 12 2 4 0 -4 4 2 2 5 3 4 5 5 -8 -7 1 5 4 -2
-0 4 -1 -2 -0 2 -2 1 2 1 -2 -8 3 -2 -1 1 -5 1 -3 5 1 -1
1 3 7 7 1 0 3 2 4 1 1 6 -1 -11 4 -2 5 -6 -4 6 1 2
3 6 4 3 2 -1 -4 2 2 5 6 1 6 1 1 -2 3 -3 -2 -1 5 -1
Height
1390 1395 1401 1409 1417 1423 1431 1435 1444 1453 1461 1471 1476 1476 1481 1484 1486 1491 1495 1495 1500 1505
1382 1389 1396 1401 1409 1414 1421 1429 1437 1446 1458 1468 1474 1472 1476 1480 1484 1489 1492 1493 1497 1502
1373 1383 1392 1397 1399 1405 1413 1422 1434 1443 1452 1461 1471 1471 1473 1476 1480 1486 1490 1490 1497 1501
1369 1374 1382 1390 1396 1402 1410 1419 1430 1440 1446 1458 1465 1468 1469 1474 1478 1483 1487 1488 1496 1498
1362 1367 1374 1382 1390 1400 1412 1423 1427 1437 1440 1454 1459 1469 1468 1471 1474 1479 1484 1489 1493 1495
1358 1364 1370 1380 1391 1400 1409 1415 1429 1425 1440 1450 1456 1463 1469 1466 1471 1474 1480 1487 1491 1493
1358 1364 1372 1381 1387 1393 1400 1408 1413 1428 1437 1446 1454 1458 1465 1465 1466 1471 1475 1483 1488 1491
1359 1365 1370 1377 1384 1390 1396 1407 1421 1426 1430 1444 1450 1456 1459 1463 1465 1471 1475 1480 1485 1489
1358 1362 1368 1375 1382 1390 1397 1403 1420 1424 1427 1439 1447 1453 1457 1462 1462 1467 1472 1478 1483 1488
1358 1363 1370 1375 1380 1389 1396 1403 1415 1423 1426 1436 1441 1448 1452 1457 1460 1465 1470 1475 1479 1484
1356 1364 1369 1373 1381 1388 1396 1403 1412 1419 1425 1435 1439 1442 1446 1451 1458 1464 1469 1473 1476 1480
1358 1361 1367 1373 1380 1387 1394 1402 1409 1416 1422 1432 1436 1441 1445 1450 1453 1459 1466 1470 1472 1476
1356 1362 1366 1372 1377 1385 1394 1401 1408 1415 1423 1427 1431 1438 1444 1447 1449 1454 1462 1467 1469 1472
1356 1360 1366 1372 1379 1384 1391 1399 1408 1415 1420 1424 1428 1432 1440 1446 1449 1454 1459 1464 1466 1469